User: anonymous   Login
Location: Oshawa
(43.9000°N, 78.8670°W)
Time: 20:29:40
(UTC-05:00)
Language:

CZ-4C R/B - Orbit

View from above orbital plane
View from above orbital plane
View from above satellite
View from above satellite

Ground track
Ground track

The orbit data is extracted from the following two-line orbital elements,

1 32290U 07055B   18047.87167288  .00001497  00000-0  42490-4 0  9994
2 32290  97.5433 164.8949 0064314 340.7261  19.1550 15.35948862569362
Epoch (UTC): 16 February 2018 20:55:12
Eccentricity: 0.0064314
inclination: 97.5433°
perigee height: 414 km
apogee height: 502 km
right ascension of ascending node: 164.8949°
argument of perigee: 340.7261°
revolutions per day: 15.35948862
mean anomaly at epoch: 19.1550°
orbit number at epoch: 56936

The dashed part of the orbit path shows where the satellite is in the earth's shadow,  

DLR